User: anonymous   Login
Location: ????? ????
(37.9717°N, 23.4051°E)
Time: 18:37:08
(UTC+00:00)
Language:

Milstar 3 - Orbit

View from above orbital plane
View from above orbital plane
View from above satellite
View from above satellite

Ground track
Ground track

The orbit data is extracted from the following two-line orbital elements,

1 25724U 99023A   24171.71214935  .00000172  00000-0  15844-2 0  9994
2 25724  28.2385 283.7325 2131475 252.8459  82.8901  9.37490110  4071
Epoch (UTC): 19 June 2024 17:05:29
Eccentricity: 0.2131475
inclination: 28.2385°
perigee height: 1097 km
apogee height: 5147 km
right ascension of ascending node: 283.7325°
argument of perigee: 252.8459°
revolutions per day: 9.37490110
mean anomaly at epoch: 82.8901°
orbit number at epoch: 407

The dashed part of the orbit path shows where the satellite is in the earth's shadow,  

DLR